Wind_Speed
10 10 10 10 9 9 11 14 15 14 14 14 14 14 13 13 13 14 13 12 14 14 12 9 7 6 6 6 6 8 8 8 6 6 6 5 4 4 3 3 4 5 5 7 7 6 6 5 5 5 5 5 4 3 2 2 2 1 1 2 3 3 3 2 2 1 1 0 1 2 3 3 3 3 2 1 1 1 0 1 2 3 3 3 3
10 10 11 11 11 9 10 13 15 16 15 14 15 15 13 12 12 14 13 12 13 14 13 11 9 8 7 6 7 8 9 9 8 7 6 6 5 5 4 4 4 5 6 7 7 6 5 4 4 4 4 4 4 2 1 1 2 2 2 3 4 4 3 3 2 1 1 1 1 2 3 3 3 2 2 2 1 1 1 2 2 2 2 2 2
9 10 11 11 11 11 10 11 13 15 16 15 14 15 14 13 13 14 14 13 13 13 14 13 11 9 8 6 6 7 9 10 9 8 7 6 6 5 5 5 5 6 6 6 6 5 5 4 3 3 4 4 3 1 1 2 3 3 4 4 4 4 3 3 2 1 1 0 1 1 2 2 1 1 1 1 1 2 2 2 2 1 2 2 3
10 11 12 11 11 12 12 11 11 13 16 17 15 14 14 14 13 13 15 15 13 13 14 13 12 11 10 8 6 6 8 10 9 9 8 7 7 7 6 6 6 6 6 6 6 5 4 4 3 3 3 3 2 0 1 2 3 4 4 5 5 4 3 2 2 1 0 0 1 1 0 1 1 2 2 2 2 2 3 2 2 2 3 3 4
11 11 11 11 12 13 13 12 11 11 14 17 16 14 13 13 12 11 14 16 14 14 14 13 13 12 11 10 9 8 8 9 9 8 8 8 8 8 7 7 6 6 6 6 6 5 4 4 3 2 3 3 1 1 2 3 4 4 5 5 4 4 3 2 2 2 2 2 2 2 2 2 3 3 3 3 3 3 3 3 3 4 4 4 4
9 9 10 11 12 12 12 12 11 10 11 15 17 16 14 12 11 11 13 16 17 16 14 15 15 14 13 13 12 11 10 9 8 7 8 9 9 9 9 8 7 7 7 6 6 5 5 5 4 3 2 2 1 3 3 4 5 5 5 5 4 3 3 2 2 3 3 3 3 3 3 3 4 4 3 3 3 3 3 4 4 5 5 5 4
7 9 10 11 12 12 12 12 12 11 11 13 15 17 16 14 11 11 14 17 19 19 16 16 16 16 16 15 14 15 14 13 11 9 9 10 10 10 10 10 9 8 8 7 7 6 6 5 5 3 3 2 3 4 5 5 6 6 5 4 3 3 2 3 3 4 4 4 4 4 4 4 4 4 4 4 4 4 4 4 4 5 4 4 4
9 11 11 11 11 11 11 12 12 12 12 12 13 15 16 16 13 11 14 16 19 19 18 18 18 18 19 17 16 17 16 17 17 15 12 10 11 11 11 11 10 9 9 9 8 7 6 6 6 5 4 3 4 6 6 6 6 6 5 4 3 3 3 3 4 4 5 5 5 5 5 4 4 4 4 4 4 4 4 4 4 4 4 4 3
12 12 12 11 11 12 12 12 12 12 12 12 13 13 14 15 15 13 13 15 17 18 20 20 19 20 21 20 19 17 16 16 18 19 17 13 12 12 12 12 11 10 10 10 9 8 7 7 7 6 6 5 4 6 7 7 7 7 6 5 5 4 4 4 4 5 5 5 5 5 5 5 5 4 4 4 4 4 4 4 4 4 4 3 3
14 14 14 13 13 13 13 13 13 12 12 12 13 13 14 15 15 15 14 15 16 17 20 22 22 22 22 22 22 19 16 15 14 16 19 17 14 13 13 14 12 11 11 11 10 9 8 8 8 7 7 7 6 6 8 8 8 7 7 7 7 6 6 6 6 6 6 6 6 5 5 5 5 4 4 4 4 4 4 4 4 4 4 4 3
15 15 15 15 15 15 15 15 15 14 14 14 14 14 15 15 15 15 16 16 16 17 20 23 24 23 22 23 23 21 18 17 16 15 16 18 17 15 14 15 14 12 12 12 11 10 9 9 9 9 8 8 7 7 8 8 8 8 8 8 8 8 8 7 7 7 7 6 6 6 6 5 5 5 4 4 4 4 4 4 4 4 4 4 4
15 15 16 16 16 16 17 17 16 16 17 17 17 17 17 17 17 16 16 16 16 17 20 23 24 24 23 23 23 21 19 18 17 15 14 17 18 16 15 15 15 13 13 13 12 11 10 10 10 10 10 9 9 9 8 9 9 9 9 9 9 9 9 9 8 8 8 7 7 7 7 6 6 6 5 5 4 4 4 5 5 5 5 5 4
17 17 17 16 16 17 17 18 18 18 18 18 18 18 18 19 19 18 17 17 16 16 18 21 23 23 24 25 23 21 19 18 18 16 15 16 18 17 16 16 16 15 14 14 13 12 11 10 10 10 10 10 10 10 10 9 10 10 10 10 10 10 9 9 9 9 9 8 8 8 8 7 7 6 6 5 5 5 5 5 5 5 5 5 5
19 19 18 18 17 17 17 18 19 19 20 20 20 20 20 20 19 19 18 17 17 17 17 20 22 23 24 25 24 23 21 20 19 18 18 18 19 18 18 17 17 16 15 15 14 13 12 12 11 11 11 11 11 11 11 11 11 11 11 11 11 11 10 10 10 10 10 10 10 9 9 8 8 7 7 6 5 5 5 6 6 6 6 6 7
20 19 19 20 19 19 18 18 19 20 21 21 21 22 22 21 21 20 19 18 17 17 18 20 21 23 24 25 26 26 23 21 20 21 21 18 18 18 19 19 18 17 16 16 15 14 14 13 12 12 12 12 12 12 12 12 12 12 12 12 12 11 11 10 10 11 11 11 10 10 10 9 9 8 7 7 6 6 6 6 7 7 7 8 8
20 20 20 20 21 20 20 19 19 20 21 22 23 23 23 23 22 22 21 20 19 18 18 19 21 23 25 26 28 27 24 23 23 24 22 18 17 19 19 19 18 17 18 17 16 15 15 15 13 13 13 13 13 13 13 13 13 13 13 13 13 12 11 11 11 11 11 11 11 11 10 10 10 9 8 8 7 7 7 8 8 8 9 9 9
21 21 21 21 21 21 20 20 20 20 21 22 24 24 24 24 24 23 23 22 21 20 20 20 20 22 24 25 27 27 26 26 25 24 22 19 19 20 19 19 18 18 19 18 17 16 17 16 15 14 14 14 14 14 14 15 14 14 14 14 13 12 12 12 12 12 12 12 12 11 11 11 10 10 9 9 9 9 9 9 9 9 10 10 10
22 22 22 21 21 20 20 20 20 20 20 22 23 24 24 25 25 24 24 23 21 21 22 23 22 21 23 25 27 27 27 27 26 24 23 22 21 21 20 20 19 18 19 19 19 18 18 18 16 15 15 15 15 15 15 16 15 15 15 15 14 13 12 12 13 13 13 13 13 12 12 11 11 10 10 10 10 10 10 10 10 11 11 11 12
23 22 22 22 21 21 21 21 20 20 21 22 23 24 23 24 24 24 23 22 22 21 22 23 23 22 23 24 26 26 26 27 27 26 25 24 23 24 23 21 20 19 20 20 21 20 19 19 18 16 16 16 16 16 16 17 17 17 16 16 15 14 13 13 14 14 14 14 14 13 13 12 11 11 11 11 11 11 11 11 11 11 12 12 13
24 23 23 23 22 22 21 21 20 20 21 22 23 23 23 23 23 23 23 21 22 22 22 22 23 24 24 24 24 25 26 27 27 27 26 25 25 25 24 23 22 22 22 22 22 22 21 20 19 17 17 17 17 17 18 18 18 18 17 17 16 15 14 14 15 15 15 15 15 14 13 13 12 12 12 12 12 12 12 12 12 12 13 13 14
25 24 24 23 23 22 22 21 21 21 21 22 23 23 23 22 22 23 24 23 22 22 21 21 22 23 24 24 24 25 26 28 27 27 27 27 27 27 27 26 25 24 24 24 24 23 23 22 21 19 18 18 18 18 18 19 19 19 18 18 17 16 15 15 16 16 16 16 15 15 14 14 13 13 13 12 12 12 12 12 12 13 13 14 14
25 24 23 23 22 21 20 20 20 20 21 22 23 23 23 22 23 24 25 24 22 22 21 21 21 23 24 24 24 24 25 26 27 28 29 29 29 29 29 28 27 26 26 25 25 24 24 22 21 20 19 19 19 19 19 19 20 20 19 19 18 18 17 16 17 17 17 17 16 16 15 15 14 14 14 13 13 13 13 13 13 13 14 15 15
25 25 24 23 22 21 20 20 20 20 21 21 23 24 24 24 24 25 26 26 25 23 22 21 22 23 24 25 25 25 25 25 27 29 30 29 30 30 30 29 28 28 27 26 25 25 24 23 22 21 21 20 20 20 20 20 20 21 20 20 20 19 19 18 18 18 18 18 17 17 17 16 15 15 15 15 14 14 14 13 13 14 14 15 16
26 25 24 23 22 21 21 20 20 21 21 22 23 25 25 24 24 24 25 27 27 25 23 22 22 23 24 25 26 27 27 26 26 28 28 28 29 30 30 30 29 29 29 28 26 26 26 25 23 23 23 22 21 21 21 20 21 22 21 21 21 21 20 19 19 19 19 19 19 18 18 17 17 17 16 16 16 16 15 14 14 14 15 16 17
26 24 23 22 22 21 21 20 20 21 22 22 24 26 26 25 24 23 24 26 27 27 26 25 24 24 25 26 28 29 27 27 28 28 29 29 29 29 31 32 31 31 31 30 29 29 28 26 25 24 23 23 22 22 22 22 23 22 22 22 22 22 21 21 20 20 20 20 20 20 19 19 18 18 18 18 17 17 16 16 16 16 16 16 17
26 24 22 21 21 20 21 21 21 21 22 23 23 25 26 25 23 22 22 24 25 27 28 28 26 26 28 27 28 29 29 30 30 29 30 30 29 29 31 32 32 32 32 30 30 30 29 28 27 25 24 24 23 23 24 24 24 23 22 22 22 23 22 22 22 21 21 21 21 21 20 20 20 19 19 19 19 18 18 18 17 17 17 18 18
26 24 22 21 20 20 20 21 21 21 21 22 23 24 26 25 23 22 23 24 25 26 28 29 28 27 29 29 28 29 29 31 32 30 30 30 30 29 30 31 32 33 32 31 30 30 30 31 30 27 25 24 24 24 25 25 25 24 24 23 23 23 23 23 23 22 22 22 22 22 22 21 21 21 21 21 20 20 20 20 19 19 19 19 19
26 24 22 20 19 19 19 19 20 20 21 21 22 23 24 24 23 23 24 25 25 25 27 29 28 27 28 29 30 30 30 31 31 31 30 30 30 31 31 31 31 32 33 32 31 29 31 33 31 28 27 25 25 26 26 26 26 25 25 24 23 23 24 24 24 23 23 23 23 23 23 22 22 22 22 22 22 22 22 21 21 20 20 20 20
26 24 22 20 19 19 19 18 18 19 20 20 21 22 23 24 24 23 24 24 23 24 27 29 28 28 28 28 30 31 32 32 31 32 32 32 31 31 31 31 31 33 33 33 31 31 33 34 32 30 29 27 27 28 28 28 26 26 26 25 25 24 24 24 25 24 24 24 24 23 23 24 24 24 24 23 23 23 23 23 22 22 22 22 22
26 24 21 20 20 19 18 18 18 19 20 20 20 21 22 23 23 23 23 23 21 22 25 28 29 29 29 29 30 31 32 33 32 31 32 33 32 32 32 33 33 34 34 33 32 33 34 34 32 31 30 29 28 29 29 29 27 26 27 27 26 25 24 25 25 25 25 25 24 24 24 25 25 25 25 25 25 24 24 24 24 23 23 24 24
27 24 22 21 20 19 18 18 19 19 20 20 21 21 21 21 21 21 21 21 20 20 23 27 29 29 30 31 31 32 32 33 33 32 32 32 33 33 34 34 35 34 33 33 33 33 35 35 32 32 32 30 30 30 31 31 28 27 27 28 27 26 25 25 25 26 26 25 25 24 25 25 26 26 26 26 26 26 25 25 25 25 25 25 26
29 25 23 21 21 20 20 19 19 19 20 21 21 21 21 21 21 20 19 19 19 19 20 24 27 29 31 32 31 32 33 33 34 34 33 33 33 33 34 34 35 34 34 34 32 32 34 34 33 34 34 32 32 31 32 32 29 27 27 28 28 27 26 26 26 27 27 26 25 25 25 26 26 26 26 26 26 26 26 26 26 26 27 27 27
31 28 25 23 22 21 21 21 21 20 20 21 21 21 21 21 22 21 20 20 20 20 20 21 24 27 30 31 31 33 34 35 35 34 35 35 33 32 33 34 34 34 34 34 32 31 34 34 33 34 35 34 33 32 32 32 30 28 28 29 29 28 27 27 27 28 28 27 26 26 26 26 27 27 27 27 27 27 27 27 27 27 28 28 28
33 31 28 26 24 23 22 23 23 22 22 22 23 23 22 22 22 22 22 21 21 21 22 22 23 25 27 30 31 33 35 36 36 35 35 35 35 33 32 33 34 34 34 34 32 32 35 36 34 34 35 35 35 34 32 32 32 30 29 29 30 29 29 29 29 29 29 28 27 27 27 27 27 27 27 27 28 28 28 28 28 29 29 29 29
35 33 32 29 27 25 25 25 25 25 24 25 26 26 26 24 23 23 23 22 22 22 22 22 23 24 25 27 29 31 33 35 35 36 36 36 36 34 33 33 34 34 34 34 32 32 35 37 36 35 36 36 37 36 34 34 34 33 31 30 31 31 30 30 30 29 29 29 28 27 27 28 28 28 28 28 28 29 29 29 29 29 30 30 30
36 35 34 33 31 29 28 28 28 27 27 27 27 28 28 26 24 23 23 23 23 23 23 23 24 25 24 25 27 29 30 31 33 34 35 36 36 35 34 34 34 34 34 34 33 33 36 38 37 36 37 37 39 38 34 34 35 33 30 31 32 31 30 31 30 30 30 30 29 28 28 28 28 28 29 29 29 29 30 30 30 30 30 30 30
38 37 36 36 35 34 32 31 31 30 29 28 28 29 29 28 26 25 24 24 24 24 24 25 25 25 25 25 27 28 28 28 30 33 35 35 35 35 35 35 35 36 35 35 35 35 37 39 38 37 37 38 39 38 34 34 36 34 31 33 35 33 32 32 32 32 31 31 30 29 29 29 29 30 30 30 30 30 30 30 31 31 31 31 31
39 39 38 38 37 37 36 35 34 33 32 30 28 28 29 30 29 27 25 25 26 26 26 26 27 26 26 26 26 28 28 28 28 31 34 36 35 35 35 36 36 37 37 37 37 37 38 39 38 37 37 38 39 39 36 35 36 35 33 36 38 36 34 34 34 33 32 32 32 31 30 30 31 31 31 30 30 30 30 30 31 32 32 32 32
40 40 40 40 40 39 38 38 38 37 36 33 31 29 29 30 30 29 27 27 27 27 27 28 28 28 28 27 27 28 28 28 28 28 31 34 36 36 35 36 37 39 39 38 37 37 38 38 39 38 38 38 39 39 38 37 37 37 37 39 39 38 37 37 35 34 34 33 34 33 32 32 32 32 31 31 31 31 31 31 32 33 33 33 33
42 42 42 42 42 41 41 40 40 39 39 37 35 32 30 29 30 30 29 28 28 28 29 29 29 29 30 29 29 29 29 29 29 28 29 31 34 36 35 35 37 39 40 39 38 38 38 38 39 39 39 39 39 40 40 39 39 39 40 40 39 39 39 38 37 38 37 37 37 36 34 33 33 33 32 31 31 32 32 33 34 34 34 34 34
44 44 43 43 43 43 43 43 42 42 41 41 40 37 34 31 31 31 31 31 30 30 30 30 30 30 31 31 31 30 30 30 30 30 30 31 32 34 35 36 37 38 39 39 39 38 39 39 39 39 40 40 40 41 42 41 40 40 42 42 42 43 41 38 40 42 40 39 39 37 36 35 34 34 33 32 33 33 33 34 35 35 36 36 35
45 45 45 45 45 45 45 44 44 44 43 43 43 42 40 36 33 32 33 33 33 32 32 32 32 32 31 31 32 32 31 30 30 30 31 32 32 32 33 35 37 37 38 39 39 38 38 39 40 40 41 41 42 42 42 42 42 44 46 45 45 46 44 42 43 43 41 39 38 37 37 37 36 35 34 33 34 34 34 35 36 37 38 37 35
46 46 46 46 46 46 46 46 46 46 46 45 45 45 44 42 38 35 34 34 35 34 34 33 33 33 33 32 32 33 32 31 31 31 32 32 33 31 31 34 36 37 38 39 39 38 38 39 40 40 41 42 42 43 43 43 44 47 48 46 45 45 45 45 45 43 41 39 38 38 39 39 37 37 36 36 36 35 35 36 38 39 39 37 36
46 47 47 48 48 47 47 47 47 47 47 47 47 46 46 45 43 40 37 35 35 35 35 34 34 34 34 34 33 33 33 33 32 32 32 33 33 33 32 33 35 37 38 38 38 39 39 39 40 40 40 41 42 42 43 44 45 47 47 46 44 43 44 45 43 43 44 41 40 42 42 41 40 39 39 38 37 36 36 37 39 39 39 39 38
47 48 48 49 49 49 49 49 49 49 49 48 48 48 47 47 45 43 41 39 37 36 36 36 35 35 35 35 34 33 33 34 34 34 34 33 34 34 33 33 34 36 37 38 38 39 40 40 40 40 39 41 41 42 43 45 45 45 46 45 44 43 44 44 44 45 46 43 43 44 43 43 43 42 41 40 38 37 37 38 39 41 41 40 40
48 48 49 50 50 51 51 51 51 51 50 50 49 49 49 49 48 46 45 43 41 40 39 38 37 36 36 36 36 35 34 34 34 35 35 35 35 35 34 34 34 35 36 37 38 38 38 39 40 40 40 41 41 42 44 45 44 43 44 45 44 42 42 43 44 45 45 44 45 46 46 45 44 43 42 41 40 39 40 40 41 42 42 42 40
47 48 49 50 51 52 52 53 53 53 53 52 52 51 51 51 50 49 47 46 44 43 41 40 39 38 37 37 37 37 35 35 35 36 36 36 36 36 35 35 34 34 35 37 37 37 37 38 39 39 40 41 42 43 44 44 44 44 45 45 43 41 42 43 44 43 43 46 47 46 45 44 43 43 42 42 42 42 41 41 42 43 43 42 40
48 49 50 50 51 52 53 53 54 55 55 54 54 53 53 52 52 51 50 48 46 44 42 41 41 40 39 38 38 38 37 36 36 37 37 37 37 36 36 35 34 34 35 36 36 36 37 38 38 39 40 41 41 43 45 44 43 44 45 45 44 44 44 45 44 43 45 50 50 47 45 43 42 42 43 43 43 42 41 41 42 43 43 42 41
52 52 53 53 53 53 54 54 55 55 56 56 56 55 54 53 52 52 51 49 48 46 44 42 40 40 40 39 38 38 38 38 37 37 38 38 36 36 36 35 35 35 35 35 36 36 37 38 38 38 39 39 38 39 42 42 41 42 43 43 43 43 44 45 45 45 47 51 52 49 47 45 42 41 42 42 42 41 41 41 41 42 43 43 42
56 57 57 58 58 57 57 57 57 57 57 57 57 57 56 55 54 53 52 50 49 47 45 43 41 40 40 40 40 39 38 38 38 38 38 38 36 35 35 35 35 36 35 34 35 35 36 37 37 37 37 39 38 38 39 40 40 41 42 42 41 42 43 44 45 46 48 50 52 51 49 46 43 41 41 41 40 40 40 40 41 42 43 43 41
59 60 61 61 62 62 62 62 61 61 60 59 58 58 57 57 56 55 54 52 51 49 47 45 43 40 39 40 40 39 38 38 38 39 39 38 36 34 35 35 35 35 35 34 34 35 34 35 36 37 37 38 39 40 40 40 40 40 40 41 43 44 44 44 45 47 49 48 49 50 48 45 43 42 41 40 39 39 40 41 41 42 42 42 41
Wind_Direction
311 313 317 316 313 313 313 315 320 324 322 317 312 306 294 281 282 287 285 281 282 284 279 271 264 254 239 228 243 263 271 272 271 264 248 236 244 257 264 268 276 290 299 300 303 307 310 313 317 325 327 328 327 324 329 341 352 0 76 121 121 120 121 125 130 138 137 81 341 329 323 320 319 315 324 351 350 335 201 145 116 92 75 77 89
314 318 318 318 320 322 318 316 317 319 320 319 314 310 301 282 273 274 276 276 275 277 274 267 260 251 243 231 230 245 261 267 266 262 249 234 238 249 254 255 266 280 289 292 296 301 304 305 311 322 326 327 330 332 357 30 57 85 113 121 118 114 116 118 117 115 100 50 354 328 321 323 328 332 352 20 37 99 142 136 115 93 80 89 99
314 316 315 314 318 321 320 317 313 313 317 318 314 311 306 291 272 261 262 270 269 267 265 261 256 248 244 237 222 228 249 263 268 268 259 242 238 243 246 247 255 265 273 282 290 298 301 294 301 315 321 327 334 345 47 79 95 109 122 120 114 112 111 110 110 108 100 24 326 312 319 337 355 14 42 69 107 136 148 141 125 114 116 119 115
312 312 310 308 311 311 313 315 312 310 314 315 314 311 307 298 283 263 255 260 261 260 258 254 250 247 248 241 216 210 233 252 264 270 270 261 250 246 244 242 244 250 259 273 282 291 292 286 294 306 314 324 330 96 103 113 117 124 127 122 117 112 108 106 112 126 148 200 205 197 146 74 77 86 97 117 136 152 155 149 141 133 131 127 121
313 313 311 311 310 309 311 315 315 313 313 313 314 312 308 299 290 270 254 251 252 255 258 257 252 248 251 244 227 217 223 241 256 268 274 271 265 259 256 251 246 248 256 267 275 281 279 275 283 290 301 315 284 154 142 140 137 136 132 125 123 117 112 113 120 141 154 164 168 159 138 119 112 113 122 135 149 157 155 148 141 139 137 133 126
315 317 318 317 317 314 314 317 319 319 316 314 315 314 311 304 292 273 256 248 249 252 254 257 253 248 247 242 235 233 227 231 246 271 285 283 277 269 265 263 256 250 256 265 267 267 266 263 269 268 277 290 219 172 164 157 150 145 135 129 127 125 129 131 136 151 155 153 155 152 140 129 123 124 133 146 155 155 149 147 147 147 144 139 132
314 318 318 317 317 316 314 316 316 316 315 314 315 315 313 311 302 279 263 253 250 249 246 250 252 250 248 244 240 235 228 223 227 253 279 287 281 271 266 262 258 252 253 263 264 260 258 255 256 250 247 257 213 192 187 172 159 151 141 135 135 144 151 152 155 161 156 152 155 153 146 140 133 135 144 151 154 153 151 154 157 157 153 146 141
316 318 317 316 315 315 315 314 311 309 308 307 310 314 315 314 310 289 267 256 252 248 243 247 252 250 249 248 245 240 236 235 240 247 255 274 282 271 265 262 257 254 252 258 263 259 256 250 248 243 235 234 210 202 203 189 174 165 156 151 155 164 167 168 170 169 163 161 163 161 156 153 148 148 154 160 162 160 161 168 171 171 169 160 148
317 317 316 316 315 316 316 313 309 306 304 302 302 308 315 315 312 301 278 259 253 249 248 249 250 250 248 248 248 247 245 244 249 251 245 255 277 270 262 260 255 250 250 254 260 260 255 249 245 240 234 228 213 206 205 200 190 181 174 169 168 170 176 183 180 177 176 174 172 168 164 163 163 166 172 179 180 176 177 185 189 188 185 170 153
313 312 313 313 312 313 313 312 311 309 306 303 302 305 312 315 312 307 295 277 262 255 254 252 249 249 248 248 249 250 249 245 248 256 248 246 261 267 260 258 253 246 246 249 255 258 254 250 245 240 236 231 222 211 206 205 201 193 187 179 176 178 184 191 190 186 187 186 180 176 175 176 179 185 193 200 199 197 197 201 200 198 194 177 159
309 310 311 310 309 310 311 312 314 313 311 309 308 309 311 313 312 310 305 297 282 267 259 254 249 249 251 250 249 250 252 248 246 256 253 241 248 261 258 255 253 245 242 245 250 255 253 250 246 241 238 233 229 220 210 209 209 204 198 188 184 186 191 195 195 192 193 194 190 187 187 190 196 201 206 212 214 214 213 214 209 201 196 182 170
308 309 310 309 309 311 312 314 315 314 313 313 313 314 312 311 311 311 309 306 297 280 265 256 250 250 254 255 252 250 251 248 244 250 248 235 242 257 255 252 252 246 241 242 246 251 251 249 245 242 239 235 233 227 216 211 211 210 206 198 194 195 197 198 197 194 195 197 197 197 198 203 208 209 211 217 223 228 228 225 217 206 198 187 180
305 307 309 310 310 312 313 315 315 315 314 313 313 313 312 310 309 308 308 310 305 293 276 263 255 250 251 253 254 254 251 247 243 242 238 232 240 251 252 251 251 247 242 239 242 246 248 247 244 242 239 236 235 231 222 216 213 213 210 204 202 203 204 203 199 196 197 198 198 200 203 208 213 212 215 218 224 234 238 234 225 214 204 197 192
303 306 309 310 311 312 313 313 313 312 311 310 310 309 308 306 305 303 304 306 304 298 287 273 264 257 252 250 252 252 249 246 242 238 236 234 237 243 248 249 248 247 243 239 239 242 242 242 241 239 238 236 234 233 229 223 217 215 213 208 206 209 210 208 203 199 200 199 198 200 203 208 211 214 217 218 222 234 240 239 230 222 213 207 202
301 304 307 308 309 310 309 309 308 308 306 305 305 306 306 304 302 299 297 296 295 295 290 281 272 263 255 250 248 247 247 247 243 237 237 236 234 237 244 247 245 246 244 240 238 239 239 239 238 237 236 234 234 234 233 229 223 220 217 212 209 210 214 214 208 203 203 202 201 202 203 205 207 212 217 219 223 231 239 241 236 230 223 216 210
299 301 303 304 305 306 306 306 306 305 303 302 301 301 302 303 303 300 295 289 286 287 288 286 280 269 259 251 248 246 246 247 243 237 237 237 233 234 240 244 244 244 244 241 238 237 238 237 236 235 233 232 232 233 233 232 230 227 221 216 213 214 217 217 213 207 206 205 204 203 203 204 204 209 217 221 225 229 236 240 240 236 232 225 218
298 299 300 301 303 304 306 306 307 306 304 301 300 299 297 296 298 300 297 291 285 282 280 281 282 276 266 256 251 248 246 248 246 239 236 233 230 232 237 241 241 241 244 243 240 237 236 236 234 233 231 230 230 231 232 233 233 231 227 222 220 220 220 219 216 212 209 209 206 204 204 205 206 210 217 221 224 229 233 237 239 240 237 232 225
298 299 300 302 304 305 308 309 310 311 308 304 301 300 298 295 294 295 295 293 287 279 275 274 276 278 273 261 254 251 249 249 248 242 234 228 228 230 233 235 236 237 242 244 242 238 235 236 234 232 231 230 229 229 230 232 233 233 232 228 226 225 224 220 219 215 213 213 209 206 205 207 209 213 218 220 223 227 231 234 237 240 240 237 231
299 302 304 306 307 309 312 312 313 314 310 307 304 302 301 298 294 292 290 288 281 274 271 270 271 275 273 266 258 252 248 248 249 245 236 228 228 230 230 233 233 233 236 239 239 238 235 236 234 232 231 232 231 228 228 230 232 234 234 231 229 228 227 224 222 220 217 216 214 210 209 211 214 217 219 221 223 226 230 233 236 239 240 240 236
303 305 307 310 312 314 315 314 314 314 310 308 306 303 301 299 296 291 286 280 274 271 270 268 268 270 271 269 262 254 249 249 250 249 242 235 232 231 229 231 230 230 231 232 234 235 234 234 234 233 232 234 233 229 226 227 231 235 235 232 231 230 230 227 225 224 221 220 218 215 215 215 218 220 221 223 224 226 229 233 236 238 240 240 238
305 308 311 313 316 318 318 317 317 316 314 313 308 302 299 297 293 287 282 276 272 271 271 268 265 266 270 270 263 254 250 249 249 247 245 242 238 233 229 228 228 229 229 229 231 232 230 231 232 233 233 233 234 231 227 227 230 234 235 233 232 232 232 230 229 228 226 224 222 221 221 220 222 224 225 226 228 230 232 234 237 239 241 241 240
306 310 313 315 317 319 320 320 320 319 318 316 311 304 300 296 290 284 279 274 272 271 271 268 263 261 265 268 264 255 249 248 248 246 245 244 242 238 233 229 228 229 229 229 231 231 230 229 229 232 234 234 235 234 230 229 232 234 234 235 234 232 233 233 232 231 229 227 226 226 226 225 226 226 227 229 231 234 236 236 238 240 242 242 242
306 311 314 316 318 321 323 323 321 320 318 315 311 308 305 300 293 287 281 274 272 272 270 265 260 257 257 262 262 257 250 248 248 248 249 250 249 246 241 235 232 232 231 230 229 229 230 230 227 228 232 233 235 236 233 230 232 234 234 235 235 233 233 233 234 234 232 230 229 229 230 230 230 229 229 231 233 236 239 240 241 242 243 244 244
307 311 314 317 319 321 323 323 321 319 316 313 310 307 305 302 297 292 286 278 272 269 267 262 257 256 254 255 258 258 253 249 248 249 250 252 253 251 246 241 237 235 233 230 227 227 229 231 229 227 229 231 233 236 235 231 231 234 235 236 236 235 233 232 233 235 234 233 231 231 232 232 232 232 232 233 234 237 240 242 244 244 245 246 246
307 311 315 317 319 321 322 322 321 317 313 311 308 304 303 301 299 296 290 283 274 267 263 260 256 255 253 251 253 256 254 250 249 248 247 247 249 250 248 243 238 236 235 232 228 228 231 233 231 229 230 231 232 234 235 232 231 233 234 236 237 236 234 233 233 234 235 235 233 232 233 232 232 233 234 235 236 237 240 242 244 246 247 248 248
306 310 314 317 318 320 320 320 319 315 311 308 304 301 300 301 300 295 290 284 276 268 265 262 258 255 253 251 251 254 252 250 248 247 245 244 243 244 246 244 239 237 238 236 232 231 233 235 232 229 230 232 232 234 236 234 232 233 234 235 238 238 235 233 233 234 234 235 235 234 234 233 233 234 235 237 238 239 240 241 243 245 247 248 250
305 309 312 315 316 317 317 317 316 314 310 307 303 299 298 300 299 293 287 283 276 271 267 264 262 259 254 252 252 255 253 250 247 245 243 243 241 240 242 243 241 239 240 239 237 233 233 235 233 231 231 232 234 234 236 236 234 233 235 235 237 238 237 235 234 234 235 235 236 236 235 235 234 235 236 238 239 240 241 242 243 245 247 249 250
303 307 310 312 312 312 312 313 314 314 313 312 307 300 298 300 299 293 287 285 281 273 265 263 263 262 257 253 253 256 257 254 252 248 243 240 240 241 242 243 243 241 241 240 239 236 234 234 233 231 230 230 234 235 236 238 236 234 236 237 237 238 238 237 236 236 235 235 236 236 237 237 237 236 237 238 240 242 243 244 245 246 248 249 251
301 305 307 308 307 306 307 309 311 314 316 318 316 309 303 301 302 298 292 290 288 278 269 266 264 261 260 258 255 254 256 257 257 253 247 243 241 241 244 245 243 242 241 241 240 237 236 235 232 230 229 228 232 236 237 237 236 234 234 237 238 237 238 238 238 238 237 236 236 237 238 239 239 238 238 239 241 243 245 246 247 248 249 251 252
300 302 303 302 301 299 301 305 308 311 316 321 322 319 314 308 306 303 299 297 294 284 276 273 269 265 263 262 258 256 255 256 257 256 253 251 248 244 243 244 243 242 241 240 239 239 238 236 232 232 231 229 231 236 238 237 236 235 236 238 238 237 238 238 239 239 239 237 237 237 239 240 241 240 240 241 242 244 245 247 248 250 251 252 253
297 298 297 296 294 293 295 298 303 308 313 318 321 321 320 315 310 305 302 300 298 289 281 278 276 273 268 264 260 259 258 257 257 255 254 254 253 249 245 243 242 242 241 240 240 241 242 239 233 233 232 229 230 235 239 238 235 235 237 239 239 238 238 239 239 240 240 239 238 239 240 241 242 242 242 242 243 244 245 247 249 251 252 252 253
293 294 293 291 288 288 290 293 296 302 307 312 315 317 318 317 314 308 301 298 297 292 284 280 279 277 273 269 265 262 260 257 257 256 254 255 256 253 248 244 242 241 241 240 240 241 243 241 236 234 234 232 231 234 238 239 237 236 238 240 241 241 239 238 238 240 241 240 240 240 241 242 243 243 243 243 244 244 245 247 249 250 251 252 253
291 291 291 289 285 283 284 287 291 295 300 304 307 310 312 312 312 310 304 299 297 294 288 282 279 277 276 274 271 267 261 256 256 256 256 256 257 256 252 247 243 242 241 240 239 239 242 242 240 239 238 235 233 234 237 240 240 238 238 240 242 241 240 239 239 240 241 241 241 241 241 243 244 245 245 245 244 245 245 247 248 250 251 252 253
289 290 290 289 286 281 279 281 285 289 293 296 298 301 304 306 306 307 307 304 300 296 292 288 283 280 278 277 275 271 264 258 255 254 254 255 256 257 256 252 248 245 242 242 240 238 240 243 243 242 239 234 231 233 237 239 241 241 239 240 241 241 240 240 240 241 242 241 241 241 242 243 244 245 246 246 246 246 247 248 250 251 252 253 254
288 288 289 289 287 283 278 278 281 285 288 290 292 294 297 300 301 302 303 303 301 298 294 290 287 283 281 280 278 275 270 263 257 254 254 254 255 256 257 256 253 248 245 245 244 241 241 242 242 242 240 234 230 232 237 239 241 241 241 242 242 241 242 242 241 241 242 242 242 242 243 244 245 245 246 247 247 248 249 251 252 253 254 255 255
287 287 287 288 288 286 282 280 280 282 284 285 287 290 292 294 296 296 297 297 298 297 295 292 288 285 283 281 279 278 275 268 260 256 256 255 254 254 256 258 256 252 249 249 248 245 243 242 242 241 241 236 231 232 237 242 245 244 243 244 243 241 242 242 242 241 242 242 243 243 244 245 245 246 246 247 248 249 251 252 254 254 254 255 255
285 286 287 287 288 288 287 285 283 281 281 281 282 285 288 289 290 290 290 292 293 294 294 292 290 289 287 283 280 278 277 272 264 258 256 255 253 253 255 257 257 254 250 249 250 249 245 243 242 241 242 240 235 234 236 240 246 246 242 241 242 243 243 242 242 242 242 244 244 244 245 245 245 246 247 248 249 250 252 254 254 255 254 255 255
285 285 286 287 288 289 289 288 287 285 283 280 278 279 282 284 286 285 284 286 288 290 292 292 291 290 289 287 283 279 276 274 269 262 257 255 253 253 253 254 255 253 251 249 250 250 248 246 244 241 241 241 239 237 235 234 239 243 240 237 239 241 243 244 243 242 242 244 246 245 244 244 245 246 247 249 250 252 253 254 255 254 254 254 255
285 285 285 285 286 287 287 287 287 286 285 284 281 278 276 278 280 282 282 282 283 286 288 289 289 289 288 288 287 283 278 274 271 267 261 257 254 253 252 251 252 252 251 250 249 249 249 249 248 244 241 241 240 240 238 235 236 238 237 237 239 241 242 241 242 242 244 245 246 246 245 244 245 247 249 250 252 253 253 254 254 254 254 255 255
284 284 284 284 285 285 285 285 286 286 286 286 285 282 278 275 275 276 278 278 279 282 283 285 286 286 287 287 286 285 283 279 275 271 267 262 257 254 253 251 251 252 252 251 249 248 248 249 250 247 242 240 241 241 239 237 237 236 236 237 240 242 243 242 243 243 245 247 246 245 245 245 247 248 248 250 251 253 254 254 254 254 254 254 255
284 284 284 284 284 284 284 284 285 285 286 286 286 285 282 278 274 273 275 275 275 277 279 281 282 283 284 285 285 284 283 282 279 275 271 268 262 258 256 253 251 251 252 251 249 249 249 248 249 249 245 242 242 243 242 239 237 237 237 237 235 237 239 241 243 244 245 245 246 246 246 247 248 248 248 249 251 252 253 254 254 255 254 254 255
285 284 284 284 284 284 284 284 284 285 286 286 286 286 285 282 278 275 274 274 274 274 274 276 278 280 280 281 282 283 283 283 281 278 274 271 267 263 259 255 252 251 250 250 251 251 249 248 247 248 248 246 244 245 244 240 236 234 236 237 236 235 236 237 240 243 242 243 245 247 248 249 248 248 248 249 250 250 252 254 254 254 254 254 254
285 284 284 283 283 283 283 283 283 284 285 285 286 286 286 285 283 280 276 274 274 273 273 273 274 276 278 278 279 280 282 283 282 279 275 273 271 268 262 257 253 250 247 248 249 250 250 249 248 249 250 250 247 245 244 242 237 234 235 238 238 238 239 239 241 243 242 243 247 247 247 247 247 247 248 248 248 249 251 253 253 254 254 254 254
285 284 284 284 283 283 283 282 283 283 284 284 284 285 285 285 285 284 281 277 274 274 273 273 273 273 274 276 277 277 279 281 281 280 277 274 273 271 265 259 254 250 248 247 247 249 250 250 249 249 250 250 247 244 243 243 240 236 235 237 239 241 242 240 240 241 241 243 246 246 245 246 247 248 249 249 249 250 252 253 254 254 253 253 254
284 284 284 283 283 283 282 282 282 282 283 283 283 283 283 283 283 283 282 280 278 276 274 273 273 273 273 274 275 276 276 277 279 280 279 275 272 270 267 261 256 252 249 247 247 248 249 250 250 248 249 249 247 243 242 242 242 238 235 237 240 243 243 238 236 240 243 245 246 244 244 246 249 250 251 251 251 252 253 253 253 252 252 253 256
284 284 283 282 282 282 281 281 281 281 281 281 281 281 281 281 281 281 281 280 279 277 276 275 274 273 273 273 273 275 275 275 277 278 278 276 273 270 266 261 257 253 250 249 248 249 249 249 249 247 247 248 247 244 243 243 244 242 239 238 241 243 243 238 234 238 245 248 247 244 244 247 251 251 251 251 252 252 252 252 252 252 253 255 258
286 285 284 283 282 281 280 280 279 279 279 279 279 279 279 279 279 279 279 279 278 277 276 276 275 274 273 272 272 273 274 274 275 276 275 275 273 271 267 261 258 255 251 250 250 251 251 250 248 247 246 247 247 244 243 244 244 243 240 239 239 240 240 237 234 236 241 246 246 246 246 249 252 251 251 251 251 252 254 254 254 254 255 257 259
287 286 285 285 283 282 281 280 279 278 278 277 277 277 277 277 277 278 278 278 278 277 275 275 274 274 273 272 271 271 271 272 273 274 274 274 273 273 270 264 258 254 251 250 250 251 251 250 249 247 246 247 247 242 239 240 241 240 240 238 238 237 236 236 236 235 236 240 245 248 249 249 250 250 250 251 253 255 257 256 255 254 255 257 259
287 287 286 285 285 284 283 282 280 279 278 277 276 276 275 275 275 276 276 277 277 277 276 274 273 273 272 272 271 270 270 270 271 272 273 273 273 274 273 266 258 254 252 251 250 249 248 248 248 247 245 246 246 240 236 238 240 239 239 239 238 238 237 237 237 235 235 239 243 246 248 247 245 246 250 254 257 259 259 258 257 255 256 258 259
288 287 286 285 284 283 283 282 281 280 279 278 277 276 275 274 273 273 274 274 275 275 275 274 272 270 271 271 271 270 269 269 269 270 271 271 271 272 272 266 258 253 253 253 252 249 248 247 247 247 244 242 242 239 238 241 242 241 240 239 238 238 239 240 239 236 236 239 241 244 246 245 244 248 255 259 260 261 262 261 259 257 257 258 258
287 286 285 284 283 282 281 280 280 279 279 278 277 276 275 274 273 273 272 272 273 272 272 272 271 269 268 269 270 270 268 268 268 268 269 270 270 269 269 265 259 254 253 253 253 250 248 247 247 246 244 241 240 241 241 241 241 240 239 236 236 237 237 238 239 237 237 240 242 244 245 245 248 254 258 258 259 261 263 262 260 257 256 256 256
Height
5844 5844 5844 5843 5843 5843 5841 5840 5838 5837 5836 5835 5833 5832 5831 5831 5832 5832 5832 5832 5832 5832 5833 5832 5831 5830 5830 5829 5828 5827 5826 5826 5826 5826 5825 5825 5824 5824 5824 5824 5824 5824 5824 5823 5823 5822 5821 5820 5819 5818 5817 5816 5815 5815 5814 5814 5813 5813 5812 5812 5812 5812 5812 5812 5812 5812 5812 5812 5812 5812 5812 5811 5811 5811 5810 5810 5809 5809 5809 5809 5809 5809 5809 5809 5809
5844 5843 5843 5841 5841 5840 5840 5839 5837 5836 5835 5834 5832 5830 5830 5829 5829 5829 5829 5830 5830 5830 5831 5831 5830 5829 5828 5828 5827 5826 5825 5824 5824 5824 5824 5824 5823 5823 5823 5822 5822 5823 5823 5822 5822 5822 5821 5819 5818 5817 5816 5815 5814 5814 5814 5813 5813 5813 5812 5812 5812 5812 5812 5812 5812 5812 5812 5812 5812 5812 5811 5811 5811 5811 5810 5810 5810 5809 5809 5809 5809 5809 5809 5809 5809
5843 5842 5841 5840 5838 5837 5837 5837 5836 5834 5833 5832 5830 5829 5828 5827 5827 5827 5827 5827 5828 5828 5828 5828 5828 5828 5827 5826 5826 5826 5825 5824 5823 5823 5823 5823 5822 5822 5821 5821 5821 5822 5822 5822 5821 5821 5820 5819 5817 5816 5815 5814 5814 5814 5813 5813 5813 5813 5813 5812 5812 5812 5812 5812 5812 5812 5812 5811 5811 5811 5811 5811 5811 5810 5810 5810 5810 5810 5810 5809 5809 5809 5809 5809 5809
5841 5841 5839 5838 5836 5835 5834 5834 5834 5833 5831 5830 5829 5827 5826 5825 5825 5825 5825 5825 5825 5825 5825 5825 5826 5826 5826 5825 5824 5825 5824 5823 5823 5822 5822 5822 5821 5821 5821 5820 5820 5821 5821 5821 5820 5820 5819 5818 5817 5816 5815 5814 5814 5813 5813 5813 5813 5813 5812 5812 5812 5812 5812 5812 5812 5812 5812 5811 5811 5811 5811 5810 5810 5810 5810 5810 5810 5810 5810 5809 5809 5809 5809 5809 5809
5839 5838 5837 5836 5835 5833 5832 5832 5832 5831 5830 5828 5827 5826 5825 5824 5823 5823 5823 5822 5823 5822 5823 5824 5824 5824 5824 5823 5822 5823 5823 5822 5822 5822 5822 5821 5821 5820 5820 5820 5819 5819 5820 5820 5820 5819 5819 5818 5817 5815 5814 5814 5813 5813 5813 5812 5812 5812 5812 5812 5812 5812 5812 5812 5812 5812 5811 5811 5811 5811 5810 5810 5810 5810 5810 5810 5810 5810 5810 5809 5809 5809 5809 5809 5809
5837 5836 5835 5834 5833 5832 5831 5830 5829 5829 5829 5827 5825 5823 5822 5822 5821 5820 5820 5820 5820 5820 5821 5821 5822 5822 5822 5821 5821 5821 5822 5822 5821 5821 5821 5820 5820 5820 5820 5819 5819 5819 5819 5819 5819 5818 5818 5817 5816 5815 5814 5813 5813 5813 5812 5812 5812 5812 5812 5812 5812 5811 5811 5811 5811 5811 5811 5811 5811 5811 5810 5810 5810 5810 5810 5810 5810 5810 5810 5809 5809 5809 5809 5809 5809
5836 5835 5834 5833 5832 5831 5830 5828 5828 5827 5827 5826 5824 5822 5820 5819 5819 5818 5817 5818 5817 5817 5818 5818 5819 5820 5820 5819 5819 5819 5820 5820 5820 5820 5819 5819 5819 5819 5819 5819 5818 5818 5818 5818 5818 5818 5817 5817 5816 5815 5814 5813 5813 5812 5812 5811 5811 5811 5811 5811 5811 5811 5811 5811 5811 5811 5811 5811 5811 5810 5810 5810 5810 5810 5810 5810 5810 5810 5810 5810 5809 5809 5809 5809 5809
5835 5834 5833 5832 5831 5830 5828 5827 5826 5825 5825 5824 5823 5821 5819 5817 5817 5816 5815 5815 5815 5815 5816 5815 5816 5818 5818 5818 5817 5816 5817 5817 5817 5818 5818 5817 5817 5818 5818 5818 5817 5816 5816 5817 5817 5817 5817 5816 5815 5814 5813 5813 5812 5812 5811 5811 5811 5810 5810 5810 5811 5811 5811 5810 5810 5811 5810 5810 5810 5810 5810 5809 5809 5809 5810 5810 5810 5810 5810 5809 5809 5809 5809 5809 5809
5833 5832 5831 5830 5829 5828 5827 5826 5825 5824 5823 5822 5821 5819 5818 5816 5815 5814 5813 5812 5812 5813 5814 5813 5813 5814 5815 5816 5815 5815 5815 5815 5815 5815 5816 5816 5816 5816 5816 5816 5815 5815 5815 5816 5816 5816 5816 5815 5815 5814 5813 5812 5812 5811 5811 5811 5810 5810 5810 5810 5810 5810 5810 5810 5810 5810 5810 5810 5810 5809 5809 5809 5809 5809 5809 5809 5809 5810 5809 5809 5809 5809 5809 5809 5809
5831 5830 5829 5828 5827 5826 5825 5825 5824 5823 5822 5820 5819 5817 5816 5815 5814 5813 5812 5811 5811 5811 5812 5811 5811 5811 5812 5813 5813 5812 5812 5813 5813 5813 5813 5814 5814 5814 5814 5814 5813 5814 5814 5814 5815 5815 5815 5814 5814 5813 5813 5812 5811 5811 5810 5810 5810 5809 5809 5809 5809 5809 5809 5809 5809 5810 5810 5810 5809 5809 5809 5809 5809 5809 5809 5809 5809 5809 5809 5809 5809 5809 5809 5809 5809
5830 5829 5828 5827 5826 5825 5824 5823 5822 5821 5820 5819 5817 5816 5814 5813 5812 5811 5810 5809 5809 5809 5809 5808 5808 5809 5809 5810 5810 5810 5810 5810 5810 5810 5810 5811 5812 5812 5812 5812 5811 5812 5812 5812 5813 5813 5813 5813 5813 5812 5812 5812 5811 5810 5810 5810 5809 5809 5808 5808 5808 5808 5809 5809 5809 5809 5809 5809 5809 5809 5809 5809 5809 5808 5808 5809 5809 5809 5809 5808 5808 5808 5808 5808 5808
5828 5827 5826 5825 5823 5822 5821 5820 5819 5818 5817 5816 5815 5814 5812 5811 5810 5809 5809 5808 5807 5807 5807 5806 5806 5806 5807 5807 5807 5807 5807 5807 5807 5808 5808 5809 5810 5810 5810 5810 5809 5810 5810 5810 5811 5811 5811 5811 5811 5811 5811 5811 5811 5810 5810 5809 5809 5808 5808 5808 5808 5808 5808 5808 5808 5808 5808 5808 5809 5809 5808 5808 5808 5808 5808 5808 5808 5808 5808 5808 5808 5808 5808 5808 5808
5825 5824 5823 5822 5821 5820 5819 5817 5816 5815 5814 5813 5812 5811 5810 5809 5808 5807 5807 5806 5805 5804 5804 5804 5804 5804 5804 5804 5805 5805 5805 5805 5805 5805 5805 5806 5807 5807 5807 5807 5807 5807 5808 5808 5809 5809 5809 5809 5810 5810 5809 5810 5810 5810 5809 5809 5808 5808 5808 5808 5807 5807 5807 5807 5807 5807 5807 5808 5808 5808 5808 5808 5808 5808 5807 5807 5808 5808 5808 5808 5808 5807 5807 5807 5807
5822 5821 5820 5819 5818 5818 5816 5815 5814 5812 5811 5810 5809 5808 5807 5806 5806 5805 5804 5804 5803 5802 5802 5802 5802 5802 5801 5801 5802 5802 5802 5803 5802 5802 5803 5804 5804 5805 5805 5804 5804 5805 5806 5806 5806 5807 5807 5807 5807 5808 5808 5808 5808 5809 5809 5808 5808 5807 5807 5807 5807 5807 5807 5806 5806 5806 5806 5807 5807 5807 5807 5807 5807 5807 5807 5807 5807 5807 5807 5807 5807 5807 5807 5807 5807
5820 5819 5818 5817 5816 5815 5814 5813 5811 5810 5809 5808 5807 5806 5804 5804 5803 5802 5802 5801 5800 5799 5799 5800 5800 5800 5799 5798 5798 5799 5800 5800 5799 5799 5799 5800 5802 5802 5802 5802 5802 5802 5803 5804 5804 5805 5805 5805 5805 5805 5806 5806 5806 5807 5808 5808 5807 5807 5807 5806 5806 5806 5806 5805 5805 5805 5805 5805 5806 5806 5806 5806 5806 5806 5806 5806 5806 5806 5806 5806 5806 5806 5806 5806 5806
5818 5817 5816 5815 5814 5813 5811 5810 5809 5807 5806 5805 5804 5803 5802 5801 5800 5799 5799 5798 5797 5797 5796 5797 5797 5797 5796 5796 5796 5796 5797 5797 5795 5795 5795 5797 5799 5799 5800 5800 5800 5800 5801 5802 5802 5802 5803 5803 5803 5803 5804 5804 5804 5805 5806 5806 5806 5806 5806 5805 5805 5805 5804 5804 5804 5804 5804 5804 5804 5804 5804 5804 5805 5805 5805 5805 5805 5805 5805 5805 5805 5805 5805 5805 5805
5816 5815 5814 5813 5811 5810 5808 5806 5805 5804 5804 5803 5802 5801 5800 5798 5797 5796 5796 5795 5795 5794 5794 5794 5794 5794 5794 5794 5794 5794 5795 5793 5792 5793 5793 5794 5795 5796 5797 5798 5798 5798 5799 5800 5800 5800 5801 5801 5801 5801 5801 5802 5802 5803 5804 5805 5805 5805 5805 5805 5804 5804 5803 5803 5803 5803 5803 5803 5803 5803 5803 5803 5803 5803 5803 5804 5804 5804 5804 5804 5804 5804 5804 5804 5805
5813 5812 5811 5810 5808 5806 5804 5803 5802 5801 5801 5800 5799 5798 5797 5796 5795 5794 5793 5792 5792 5791 5791 5791 5791 5791 5791 5791 5791 5791 5792 5791 5791 5791 5790 5791 5792 5793 5794 5794 5794 5796 5797 5798 5798 5798 5799 5799 5799 5799 5799 5799 5800 5800 5801 5802 5803 5803 5804 5803 5803 5803 5802 5802 5802 5802 5802 5802 5802 5802 5802 5802 5802 5802 5802 5802 5802 5802 5803 5803 5803 5803 5803 5803 5803
5810 5809 5808 5806 5805 5803 5801 5800 5799 5799 5798 5796 5795 5794 5793 5792 5792 5791 5790 5789 5788 5788 5787 5788 5789 5789 5787 5787 5787 5787 5788 5787 5788 5788 5788 5788 5788 5789 5790 5790 5791 5792 5794 5795 5795 5796 5796 5796 5797 5796 5796 5797 5797 5798 5799 5800 5801 5802 5802 5802 5802 5801 5801 5801 5800 5800 5800 5800 5800 5800 5801 5801 5801 5801 5801 5801 5801 5801 5801 5801 5801 5801 5802 5802 5802
5806 5805 5804 5803 5801 5800 5798 5797 5796 5796 5794 5793 5791 5790 5789 5789 5788 5788 5787 5786 5785 5785 5784 5784 5785 5785 5784 5784 5784 5784 5784 5784 5784 5785 5786 5786 5786 5786 5786 5786 5787 5788 5790 5791 5792 5793 5793 5794 5794 5794 5794 5794 5795 5796 5797 5798 5799 5800 5800 5800 5800 5800 5799 5799 5799 5799 5799 5799 5799 5799 5799 5799 5799 5799 5799 5799 5799 5800 5800 5800 5800 5800 5800 5800 5801
5803 5802 5801 5799 5798 5797 5795 5794 5793 5792 5791 5789 5788 5787 5786 5786 5785 5784 5783 5782 5782 5782 5781 5781 5781 5782 5782 5781 5781 5780 5780 5780 5781 5782 5783 5783 5783 5783 5782 5782 5783 5784 5785 5787 5788 5789 5790 5791 5791 5791 5792 5792 5792 5793 5794 5795 5796 5797 5798 5798 5798 5798 5798 5798 5798 5797 5797 5797 5797 5798 5798 5798 5798 5798 5798 5798 5798 5798 5798 5798 5799 5799 5799 5799 5799
5800 5799 5798 5796 5795 5794 5792 5791 5789 5788 5787 5786 5785 5784 5783 5783 5782 5781 5779 5778 5778 5778 5777 5777 5777 5778 5778 5778 5778 5778 5777 5777 5778 5778 5779 5779 5780 5779 5778 5779 5780 5780 5781 5783 5784 5786 5787 5788 5788 5788 5789 5789 5790 5790 5791 5793 5794 5795 5796 5796 5795 5795 5795 5795 5796 5796 5796 5796 5796 5796 5796 5796 5796 5796 5797 5797 5797 5797 5797 5797 5797 5797 5797 5797 5797
5797 5796 5795 5793 5792 5790 5789 5787 5786 5785 5784 5784 5783 5781 5780 5779 5778 5777 5777 5776 5775 5775 5773 5773 5773 5773 5774 5774 5774 5774 5774 5774 5774 5774 5775 5776 5777 5776 5776 5776 5777 5777 5778 5779 5781 5782 5784 5785 5786 5786 5785 5786 5787 5788 5789 5790 5791 5792 5793 5793 5793 5793 5793 5793 5793 5794 5794 5794 5794 5794 5794 5794 5794 5795 5795 5795 5795 5795 5795 5795 5795 5795 5795 5795 5795
5794 5793 5792 5790 5789 5787 5785 5784 5783 5782 5781 5781 5780 5778 5777 5776 5775 5774 5774 5773 5772 5771 5770 5769 5769 5769 5769 5770 5770 5770 5770 5771 5770 5770 5771 5772 5773 5773 5774 5774 5774 5775 5775 5776 5778 5779 5781 5782 5783 5783 5782 5783 5784 5785 5786 5787 5788 5789 5790 5791 5791 5791 5790 5791 5791 5791 5792 5792 5792 5792 5792 5792 5792 5793 5793 5793 5793 5793 5793 5793 5794 5794 5794 5794 5793
5792 5790 5789 5787 5785 5784 5782 5781 5780 5779 5779 5778 5777 5775 5774 5773 5772 5771 5770 5769 5768 5767 5766 5765 5765 5765 5765 5766 5766 5765 5766 5767 5766 5766 5767 5767 5768 5770 5770 5770 5771 5771 5771 5772 5774 5776 5777 5779 5779 5780 5780 5780 5781 5782 5783 5784 5785 5786 5787 5788 5788 5788 5788 5788 5788 5789 5789 5790 5790 5790 5790 5790 5790 5790 5791 5791 5791 5791 5791 5791 5792 5792 5792 5792 5792
5789 5787 5786 5784 5783 5781 5779 5778 5777 5777 5776 5776 5774 5772 5771 5770 5769 5768 5767 5765 5764 5763 5762 5761 5761 5761 5761 5761 5762 5762 5762 5762 5762 5762 5762 5763 5764 5765 5766 5767 5768 5768 5768 5769 5771 5772 5775 5775 5775 5776 5777 5777 5778 5779 5780 5781 5782 5782 5783 5784 5785 5785 5786 5786 5786 5786 5786 5787 5787 5788 5788 5788 5788 5788 5788 5789 5789 5789 5789 5789 5789 5789 5789 5790 5790
5786 5785 5783 5782 5780 5778 5777 5776 5775 5774 5773 5773 5771 5769 5767 5767 5766 5764 5763 5762 5761 5760 5759 5757 5757 5757 5757 5758 5758 5758 5758 5758 5758 5758 5758 5759 5760 5761 5761 5762 5764 5764 5765 5766 5767 5770 5771 5771 5772 5773 5774 5774 5774 5775 5776 5777 5779 5779 5780 5781 5782 5782 5783 5783 5783 5783 5784 5784 5785 5785 5785 5786 5785 5786 5786 5786 5786 5786 5786 5787 5787 5787 5787 5787 5788
5783 5782 5780 5779 5778 5776 5775 5774 5773 5772 5771 5770 5768 5766 5765 5763 5762 5761 5760 5758 5758 5757 5756 5754 5754 5754 5754 5754 5754 5754 5754 5754 5755 5755 5755 5755 5756 5757 5757 5758 5759 5760 5761 5762 5764 5766 5767 5767 5769 5771 5770 5771 5771 5771 5772 5774 5775 5777 5777 5777 5778 5779 5780 5780 5780 5781 5781 5781 5782 5783 5783 5783 5783 5783 5783 5783 5784 5784 5784 5784 5784 5784 5784 5785 5785
5780 5779 5777 5776 5775 5774 5772 5771 5770 5769 5768 5768 5767 5765 5763 5761 5759 5758 5757 5755 5755 5754 5752 5752 5751 5751 5750 5750 5750 5750 5750 5750 5751 5751 5751 5751 5752 5753 5754 5755 5755 5756 5757 5758 5760 5762 5762 5763 5765 5767 5766 5767 5767 5767 5768 5770 5772 5773 5774 5774 5775 5776 5777 5777 5778 5778 5778 5779 5779 5780 5781 5781 5781 5780 5780 5781 5781 5782 5782 5782 5782 5782 5782 5782 5782
5777 5776 5774 5773 5772 5771 5770 5769 5768 5766 5766 5765 5765 5763 5761 5759 5757 5755 5753 5753 5752 5751 5750 5749 5748 5748 5747 5746 5746 5746 5745 5745 5746 5747 5747 5748 5748 5748 5750 5751 5751 5751 5752 5754 5756 5757 5757 5759 5761 5763 5763 5763 5763 5763 5763 5765 5767 5769 5770 5771 5772 5773 5774 5774 5775 5775 5775 5776 5776 5777 5778 5778 5778 5778 5778 5778 5778 5779 5779 5779 5779 5779 5779 5779 5779
5774 5773 5772 5770 5769 5768 5767 5766 5765 5764 5763 5763 5762 5761 5759 5757 5755 5753 5751 5750 5749 5748 5747 5746 5745 5745 5744 5743 5743 5743 5742 5742 5742 5742 5743 5744 5744 5745 5745 5746 5747 5747 5748 5749 5751 5753 5753 5754 5757 5758 5758 5759 5760 5759 5759 5760 5763 5765 5767 5768 5768 5769 5771 5771 5772 5772 5773 5773 5773 5774 5774 5775 5775 5775 5775 5775 5775 5776 5776 5776 5777 5777 5776 5776 5776
5770 5770 5769 5767 5766 5765 5764 5763 5762 5761 5760 5760 5759 5758 5757 5755 5753 5751 5749 5747 5745 5744 5743 5742 5742 5742 5740 5740 5740 5740 5739 5739 5738 5739 5739 5740 5741 5741 5741 5742 5743 5744 5744 5745 5747 5749 5749 5750 5752 5753 5754 5756 5756 5756 5755 5755 5758 5761 5763 5764 5764 5766 5767 5768 5768 5769 5769 5770 5770 5770 5771 5772 5772 5772 5772 5772 5772 5772 5773 5773 5773 5773 5773 5773 5772
5767 5766 5765 5764 5763 5762 5761 5760 5759 5759 5758 5757 5756 5755 5754 5752 5751 5749 5747 5745 5743 5741 5740 5739 5738 5738 5737 5736 5736 5736 5735 5735 5735 5735 5735 5736 5737 5737 5737 5738 5739 5740 5740 5741 5743 5745 5745 5745 5748 5749 5750 5753 5753 5753 5752 5751 5753 5756 5759 5760 5761 5762 5763 5764 5764 5765 5766 5766 5767 5767 5768 5768 5768 5769 5769 5769 5769 5769 5769 5770 5770 5770 5769 5769 5769
5762 5762 5761 5761 5760 5759 5758 5757 5756 5755 5755 5754 5753 5751 5751 5749 5748 5746 5744 5743 5741 5739 5738 5736 5735 5734 5734 5733 5733 5732 5731 5731 5731 5731 5731 5732 5732 5733 5733 5734 5735 5736 5736 5737 5738 5741 5741 5741 5743 5744 5745 5748 5749 5749 5749 5748 5749 5751 5754 5756 5757 5758 5759 5760 5760 5761 5762 5762 5763 5763 5764 5765 5765 5765 5765 5765 5765 5766 5766 5766 5766 5766 5766 5766 5765
5758 5757 5757 5756 5756 5755 5754 5754 5753 5752 5751 5750 5749 5748 5747 5746 5745 5743 5742 5740 5738 5737 5735 5734 5732 5731 5731 5731 5730 5728 5726 5726 5727 5728 5728 5728 5728 5729 5729 5730 5731 5732 5732 5733 5734 5735 5737 5737 5738 5739 5740 5742 5744 5745 5745 5745 5744 5746 5750 5752 5753 5754 5755 5756 5757 5757 5758 5758 5759 5760 5760 5761 5762 5762 5762 5762 5762 5762 5762 5763 5763 5763 5762 5762 5762
5753 5753 5752 5752 5751 5750 5750 5749 5749 5748 5747 5746 5745 5744 5743 5742 5741 5740 5738 5736 5735 5734 5733 5731 5730 5729 5728 5728 5727 5725 5724 5723 5723 5723 5723 5724 5724 5724 5725 5726 5727 5728 5728 5729 5729 5731 5732 5732 5732 5734 5736 5737 5739 5740 5741 5741 5741 5743 5746 5748 5748 5749 5750 5751 5752 5753 5754 5754 5755 5756 5756 5757 5758 5758 5758 5758 5758 5758 5759 5759 5759 5759 5758 5758 5758
5749 5748 5747 5747 5746 5745 5745 5744 5744 5743 5742 5742 5741 5740 5739 5738 5737 5736 5734 5733 5731 5730 5729 5728 5727 5726 5725 5724 5723 5722 5721 5721 5720 5720 5719 5720 5720 5720 5721 5721 5722 5723 5724 5724 5725 5726 5726 5727 5728 5730 5731 5732 5734 5736 5738 5739 5739 5740 5743 5744 5744 5745 5746 5747 5748 5749 5750 5750 5751 5752 5752 5753 5754 5754 5754 5754 5754 5754 5755 5755 5755 5755 5754 5754 5754
5744 5743 5742 5741 5741 5740 5739 5739 5738 5738 5737 5737 5737 5736 5734 5733 5732 5731 5730 5729 5727 5726 5725 5724 5723 5722 5721 5721 5720 5718 5718 5717 5716 5716 5716 5715 5715 5716 5717 5717 5718 5718 5719 5719 5720 5721 5721 5722 5723 5725 5726 5727 5729 5731 5733 5736 5736 5736 5738 5739 5739 5741 5742 5742 5744 5745 5745 5746 5747 5748 5748 5749 5749 5749 5750 5750 5750 5750 5751 5751 5751 5751 5750 5750 5750
5738 5737 5736 5736 5735 5734 5734 5733 5733 5732 5732 5732 5732 5731 5730 5729 5728 5727 5726 5725 5724 5722 5721 5720 5719 5718 5717 5717 5716 5715 5714 5713 5712 5712 5711 5711 5711 5711 5712 5712 5712 5712 5713 5715 5716 5716 5717 5717 5718 5720 5721 5722 5724 5726 5728 5730 5731 5731 5731 5733 5735 5737 5738 5738 5740 5740 5741 5742 5743 5743 5744 5744 5745 5745 5746 5746 5746 5746 5746 5747 5746 5746 5746 5746 5746
5733 5732 5731 5730 5730 5729 5728 5728 5727 5726 5726 5725 5725 5725 5725 5724 5723 5722 5722 5721 5720 5718 5717 5715 5714 5714 5713 5712 5712 5711 5710 5709 5708 5707 5707 5707 5707 5707 5707 5708 5707 5707 5709 5710 5711 5711 5712 5713 5713 5714 5716 5717 5719 5720 5722 5724 5726 5727 5727 5729 5731 5732 5732 5734 5735 5735 5736 5737 5738 5739 5739 5740 5741 5741 5741 5741 5741 5742 5742 5742 5742 5742 5742 5742 5742
5728 5727 5726 5725 5724 5723 5723 5722 5721 5721 5720 5719 5719 5719 5719 5719 5718 5717 5717 5716 5715 5714 5712 5711 5710 5709 5708 5708 5707 5706 5706 5706 5705 5703 5702 5702 5702 5702 5702 5702 5702 5702 5704 5705 5705 5706 5707 5708 5708 5709 5710 5712 5714 5715 5716 5719 5722 5723 5723 5723 5724 5725 5728 5730 5729 5729 5731 5732 5733 5734 5735 5735 5736 5736 5736 5737 5737 5737 5737 5737 5737 5737 5737 5737 5738
5722 5721 5720 5719 5718 5718 5717 5716 5715 5715 5714 5713 5712 5712 5712 5713 5713 5712 5711 5710 5709 5709 5708 5707 5706 5704 5704 5703 5702 5702 5701 5701 5701 5699 5698 5697 5696 5697 5697 5697 5697 5698 5698 5699 5699 5700 5701 5702 5703 5704 5705 5707 5709 5710 5711 5713 5715 5716 5716 5717 5719 5721 5723 5725 5723 5724 5726 5727 5729 5730 5730 5730 5731 5731 5732 5732 5732 5732 5732 5732 5732 5732 5732 5733 5733
5717 5715 5714 5713 5712 5711 5711 5710 5709 5708 5707 5707 5706 5705 5704 5705 5705 5706 5706 5705 5703 5703 5702 5702 5701 5700 5699 5698 5698 5697 5696 5696 5695 5695 5693 5692 5691 5691 5691 5691 5691 5692 5692 5693 5693 5694 5695 5697 5698 5699 5700 5701 5703 5705 5705 5707 5708 5709 5710 5712 5714 5716 5717 5718 5718 5720 5721 5723 5724 5725 5725 5725 5725 5726 5726 5726 5726 5727 5728 5727 5727 5727 5727 5728 5728
5711 5710 5708 5707 5706 5705 5704 5703 5703 5702 5701 5700 5700 5699 5698 5697 5697 5698 5698 5698 5698 5697 5696 5696 5695 5695 5694 5693 5692 5692 5692 5691 5690 5689 5688 5687 5685 5685 5685 5685 5685 5686 5686 5687 5688 5689 5690 5691 5692 5694 5695 5696 5697 5699 5700 5701 5702 5703 5705 5707 5709 5711 5712 5713 5714 5716 5716 5717 5718 5718 5718 5719 5720 5720 5721 5721 5722 5722 5722 5722 5722 5722 5723 5723 5723
5705 5704 5702 5701 5699 5698 5697 5697 5696 5695 5695 5694 5693 5692 5691 5691 5690 5690 5691 5691 5691 5690 5690 5689 5689 5689 5688 5688 5687 5687 5686 5686 5685 5683 5683 5682 5681 5680 5680 5680 5680 5680 5681 5682 5683 5683 5684 5685 5686 5688 5690 5691 5692 5693 5694 5695 5696 5697 5700 5702 5704 5705 5706 5709 5712 5712 5711 5711 5711 5712 5712 5713 5714 5715 5716 5717 5717 5717 5717 5717 5717 5717 5717 5718 5718
5699 5697 5696 5694 5693 5691 5690 5689 5689 5688 5688 5687 5686 5685 5685 5684 5683 5683 5683 5684 5684 5684 5683 5683 5683 5683 5682 5682 5682 5681 5681 5680 5680 5678 5677 5676 5675 5675 5675 5675 5675 5676 5676 5677 5677 5678 5679 5680 5681 5683 5684 5685 5686 5688 5689 5690 5691 5693 5695 5697 5699 5701 5702 5704 5706 5707 5706 5705 5705 5705 5706 5708 5709 5710 5711 5711 5712 5712 5712 5712 5712 5712 5712 5713 5714
5692 5691 5689 5688 5686 5685 5683 5682 5681 5680 5680 5679 5679 5678 5678 5677 5676 5676 5676 5676 5676 5676 5676 5676 5676 5676 5676 5676 5676 5675 5675 5675 5674 5673 5672 5671 5670 5669 5669 5670 5670 5671 5671 5671 5671 5672 5673 5674 5675 5677 5678 5680 5681 5682 5683 5684 5686 5688 5690 5692 5694 5696 5697 5698 5700 5702 5702 5699 5697 5699 5701 5703 5704 5705 5706 5706 5706 5706 5706 5706 5707 5707 5708 5709 5710
5686 5684 5682 5681 5679 5678 5676 5675 5673 5672 5671 5671 5671 5670 5670 5670 5669 5668 5668 5668 5668 5668 5669 5669 5669 5669 5669 5669 5669 5669 5669 5669 5668 5667 5666 5665 5664 5664 5664 5664 5665 5665 5665 5665 5666 5667 5668 5668 5669 5670 5672 5673 5675 5676 5677 5679 5680 5682 5684 5686 5687 5689 5691 5692 5694 5697 5696 5692 5692 5694 5696 5698 5699 5700 5700 5700 5700 5701 5701 5702 5702 5703 5703 5704 5705
5679 5677 5675 5674 5672 5670 5669 5667 5666 5664 5663 5662 5662 5662 5662 5662 5661 5661 5660 5660 5660 5660 5661 5661 5662 5661 5661 5662 5662 5663 5663 5663 5662 5662 5661 5660 5659 5659 5659 5659 5659 5659 5659 5660 5660 5661 5662 5662 5663 5665 5666 5668 5669 5670 5671 5673 5675 5676 5678 5680 5682 5683 5685 5687 5689 5690 5689 5687 5688 5690 5691 5692 5693 5694 5694 5695 5695 5696 5697 5697 5698 5698 5698 5699 5700
5672 5669 5667 5666 5664 5662 5661 5659 5658 5656 5655 5654 5653 5652 5652 5652 5653 5653 5653 5653 5653 5653 5653 5653 5654 5655 5654 5654 5655 5656 5657 5657 5656 5656 5655 5654 5655 5655 5653 5653 5653 5653 5654 5654 5654 5655 5656 5657 5658 5659 5661 5662 5663 5664 5666 5667 5669 5670 5673 5675 5677 5678 5680 5682 5684 5685 5684 5683 5684 5685 5685 5686 5688 5689 5689 5690 5691 5691 5692 5693 5694 5694 5694 5694 5695
5664 5661 5659 5657 5655 5653 5652 5650 5649 5647 5646 5645 5644 5644 5643 5643 5643 5644 5645 5645 5645 5645 5645 5645 5646 5647 5647 5647 5648 5649 5650 5651 5650 5650 5649 5648 5649 5649 5648 5647 5648 5648 5649 5649 5649 5649 5650 5651 5653 5654 5655 5657 5658 5659 5661 5662 5663 5665 5667 5669 5670 5672 5674 5676 5678 5678 5678 5679 5680 5680 5681 5682 5683 5684 5685 5685 5686 5686 5687 5688 5689 5689 5689 5689 5690